FW0888 Weather Reports


Display with metric or nautical units.
time (UTC)temp
F
wind
direction
speed
MPH
gust
MPH
rain 1hr
in
rain 24hr
in
rain mn
in
humidity
%
barometer
mb
20191115125329 32 252 1.0 9.0 0.00 0.20 0.00 65 1020.9
20191115124853 32 261 1.0 9.0 0.00 0.20 0.00 65 1020.8
20191115124319 32 249 2.0 8.0 0.00 0.20 0.00 65 1020.8
20191115123911 32 279 2.0 11.0 0.00 0.20 0.00 65 1020.8
20191115123336 32 254 2.0 13.0 0.00 0.20 0.00 65 1020.9
20191115122908 32 219 2.0 13.0 0.00 0.20 0.00 65 1020.8
20191115122333 32 242 3.0 9.0 0.00 0.20 0.00 65 1020.7
20191115121857 32 250 2.0 9.0 0.00 0.20 0.00 65 1020.7
20191115121329 32 173 1.0 7.0 0.00 0.20 0.00 65 1020.6
20191115120854 32 269 2.0 7.0 0.00 0.20 0.00 65 1020.6
20191115120346 32 254 1.0 12.0 0.00 0.20 0.00 65 1020.5
20191115115829 32 245 1.0 9.0 0.00 0.20 0.00 65 1020.5
20191115115402 32 269 2.0 9.0 0.00 0.20 0.00 64 1020.5
20191115114824 32 277 1.0 9.0 0.00 0.20 0.00 64 1020.5
20191115114414 32 240 2.0 8.0 0.00 0.20 0.00 64 1020.5
20191115113839 32 251 1.0 7.0 0.00 0.20 0.00 65 1020.5
20191115113403 32 255 1.0 10.0 0.00 0.20 0.00 64 1020.5
20191115112840 32 180 3.0 10.0 0.00 0.20 0.00 64 1020.4
20191115112405 32 195 0.0 7.0 0.00 0.20 0.00 65 1020.4
20191115111856 32 221 0.0 5.0 0.00 0.20 0.00 65 1020.3
20191115111336 32 232 1.0 5.0 0.00 0.20 0.00 64 1020.4
20191115110841 32 254 1.0 8.0 0.00 0.20 0.00 64 1020.4
20191115110412 32 265 3.0 9.0 0.00 0.20 0.00 64 1020.3
20191115105836 32 250 1.0 9.0 0.00 0.20 0.00 64 1020.3
20191115105359 32 248 0.0 5.0 0.00 0.20 0.00 64 1020.3
20191115104850 32 248 2.0 7.0 0.00 0.20 0.00 63 1020.3
20191115104319 32 249 2.0 7.0 0.00 0.20 0.00 63 1020.4
20191115103848 32 236 2.0 9.0 0.00 0.20 0.00 63 1020.4
20191115103334 32 250 1.0 9.0 0.00 0.20 0.00 63 1020.4
20191115102905 32 250 2.0 9.0 0.00 0.20 0.00 63 1020.3
20191115102350 32 242 2.0 9.0 0.00 0.20 0.00 63 1020.2
20191115101841 32 250 2.0 9.0 0.00 0.20 0.00 63 1020.3
20191115101333 32 274 1.0 10.0 0.00 0.20 0.00 63 1020.3
20191115100858 32 255 1.0 9.0 0.00 0.20 0.00 63 1020.4
20191115100348 32 244 2.0 7.0 0.00 0.20 0.00 63 1020.4
20191115095913 32 271 1.0 9.0 0.00 0.20 0.00 63 1020.4
20191115095343 32 278 2.0 9.0 0.00 0.20 0.00 62 1020.4
20191115094912 32 276 2.0 8.0 0.00 0.20 0.00 63 1020.3
20191115094355 32 242 3.0 8.0 0.00 0.20 0.00 62 1020.2
20191115093846 32 207 1.0 7.0 0.00 0.20 0.00 63 1020.2
20191115093412 32 228 1.0 7.0 0.00 0.20 0.00 63 1020.1
20191115092845 32 244 2.0 6.0 0.00 0.20 0.00 63 1020.2
20191115092407 32 234 1.0 8.0 0.00 0.20 0.00 63 1020.2
20191115091327 32 251 2.0 9.0 0.00 0.20 0.00 62 1020.0
20191115090852 32 288 3.0 9.0 0.00 0.20 0.00 63 1020.0
20191115090318 32 261 1.0 9.0 0.00 0.20 0.00 63 1020.1
20191115085910 32 248 1.0 9.0 0.00 0.20 0.00 63 1020.0
20191115085356 32 285 2.0 9.0 0.00 0.20 0.00 63 1019.7
20191115084840 32 233 3.0 10.0 0.00 0.20 0.00 62 1019.7
20191115084412 32 265 3.0 10.0 0.00 0.20 0.00 62 1019.7
20191115083856 33 286 1.0 5.0 0.00 0.20 0.00 62 1019.7
20191115083328 33 195 1.0 15.0 0.00 0.20 0.00 63 1019.7
20191115082853 33 250 3.0 15.0 0.00 0.20 0.00 62 1019.8
20191115082320 33 300 1.0 11.0 0.00 0.20 0.00 62 1019.9
20191115081853 33 280 2.0 8.0 0.00 0.20 0.00 62 1019.8
20191115081338 33 257 1.0 7.0 0.00 0.20 0.00 63 1019.9
20191115080909 33 233 0.0 4.0 0.00 0.20 0.00 63 1019.9
20191115080353 33 244 1.0 6.0 0.00 0.20 0.00 62 1020.0
20191115075825 33 232 1.0 9.0 0.00 0.20 0.00 63 1020.1
20191115075410 33 176 2.0 9.0 0.00 0.20 0.00 63 1020.1
20191115074843 33 294 2.0 10.0 0.00 0.20 0.00 62 1019.9
20191115073826 33 269 3.0 10.0 0.00 0.20 0.00 62 1019.9
20191115073349 33 296 1.0 8.0 0.00 0.20 0.00 62 1019.8
20191115072841 33 262 1.0 8.0 0.00 0.20 0.00 62 1019.9
20191115072323 33 247 0.0 11.0 0.00 0.20 0.00 62 1020.0
20191115071855 33 243 3.0 11.0 0.00 0.20 0.00 62 1019.9
20191115071339 33 277 1.0 11.0 0.00 0.20 0.00 62 1019.9
20191115070830 33 141 2.0 14.0 0.00 0.20 0.00 62 1019.8
20191115070322 33 182 4.0 14.0 0.00 0.20 0.00 62 1019.7
20191115065818 33 158 1.0 20.0 0.00 0.20 0.00 63 1019.7
20191115065339 33 275 4.0 20.0 0.00 0.20 0.00 62 1019.7
20191115064818 33 295 1.0 9.0 0.00 0.20 0.00 62 1019.6
20191115064331 33 252 3.0 9.0 0.00 0.20 0.00 63 1019.6
20191115063834 33 240 3.0 13.0 0.00 0.20 0.00 62 1019.8
20191115063330 33 262 2.0 13.0 0.00 0.20 0.00 62 1019.7
20191115062834 33 254 3.0 10.0 0.00 0.20 0.00 63 1019.8
20191115062333 33 245 1.0 10.0 0.00 0.20 0.00 64 1019.8
20191115061830 33 261 1.0 8.0 0.00 0.20 0.00 64 1019.8
20191115061318 33 275 0.0 6.0 0.00 0.20 0.00 64 1019.9
20191115060830 33 264 2.0 8.0 0.00 0.20 0.00 64 1019.8
20191115060334 33 248 1.0 8.0 0.00 0.20 0.00 65 1019.8
20191115055830 33 238 2.0 9.0 0.00 0.20 0.00 65 1019.9
20191115055334 33 263 2.0 9.0 0.00 0.20 0.00 65 1019.9
20191115054831 33 237 1.0 4.0 0.00 0.20 0.00 65 1020.0
20191115054327 33 161 1.0 7.0 0.00 0.20 0.00 65 1020.1
20191115053831 33 271 1.0 8.0 0.00 0.20 0.00 64 1020.1
20191115053328 33 264 1.0 4.0 0.00 0.20 0.00 64 1020.2
20191115052832 33 248 0.0 9.0 0.00 0.20 0.00 65 1020.4
20191115052328 33 250 1.0 9.0 0.00 0.20 0.00 65 1020.3
20191115051834 33 211 0.0 12.0 0.00 0.20 0.00 65 1020.5
20191115051330 33 200 2.0 8.0 0.00 0.20 0.00 65 1020.5
20191115050827 33 258 1.0 8.0 0.00 0.20 0.00 64 1020.5
20191115050330 33 232 1.0 4.0 0.00 0.20 0.00 65 1020.5
20191115045908 33 219 1.0 5.0 0.00 0.20 0.04 65 1020.6
20191115045335 33 247 1.0 9.0 0.00 0.20 0.04 64 1020.6
20191115044900 33 273 1.0 8.0 0.00 0.20 0.04 64 1020.5
20191115044332 33 324 2.0 5.0 0.00 0.20 0.04 64 1020.4
20191115043916 33 261 2.0 5.0 0.00 0.20 0.04 64 1020.5
20191115043331 33 268 1.0 10.0 0.00 0.20 0.04 63 1020.4
20191115042822 33 242 1.0 10.0 0.00 0.20 0.04 64 1020.5
20191115042413 33 259 0.0 10.0 0.00 0.20 0.04 64 1020.6
20191115041838 33 257 2.0 10.0 0.00 0.20 0.04 63 1020.7
20191115041330 33 277 2.0 9.0 0.00 0.20 0.04 63 1020.5
20191115040853 33 217 5.0 9.0 0.00 0.20 0.04 63 1020.6
20191115040321 33 250 2.0 8.0 0.00 0.20 0.04 63 1020.6
20191115035851 33 244 1.0 9.0 0.00 0.20 0.04 63 1020.7
20191115035332 33 264 2.0 9.0 0.00 0.20 0.04 63 1020.7
20191115034905 33 253 2.0 8.0 0.00 0.20 0.04 62 1020.8
20191115034349 33 254 2.0 8.0 0.00 0.20 0.04 62 1021.0
20191115033821 33 238 2.0 10.0 0.00 0.20 0.04 62 1021.0
20191115033346 33 267 1.0 8.0 0.00 0.20 0.04 63 1021.1
20191115032911 33 263 2.0 6.0 0.00 0.20 0.04 63 1021.1
20191115032400 33 261 2.0 7.0 0.00 0.20 0.04 64 1021.0
20191115031829 32 241 3.0 7.0 0.00 0.20 0.04 65 1021.1
20191115031320 32 257 1.0 4.0 0.00 0.20 0.04 66 1021.2
20191115030845 32 260 1.0 4.0 0.00 0.20 0.04 67 1021.2
20191115030317 32 250 0.0 3.0 0.00 0.20 0.04 67 1021.1
20191115025843 32 251 0.0 4.0 0.00 0.20 0.04 67 1021.1
20191115025406 32 250 1.0 4.0 0.00 0.20 0.04 67 1021.1
20191115024838 32 249 0.0 3.0 0.00 0.20 0.04 68 1021.2
20191115024404 32 249 0.0 3.0 0.00 0.20 0.04 67 1021.3
20191115023855 32 249 0.0 3.0 0.00 0.20 0.04 67 1021.4
20191115023323 32 249 0.0 5.0 0.00 0.20 0.04 67 1021.4
20191115022848 32 249 0.0 3.0 0.00 0.20 0.04 67 1021.3
20191115022320 32 246 0.0 3.0 0.00 0.20 0.04 68 1021.3
20191115021900 32 247 0.0 1.0 0.00 0.20 0.04 68 1021.3
20191115021352 32 247 0.0 3.0 0.00 0.20 0.04 68 1021.3
20191115020836 32 247 1.0 3.0 0.00 0.20 0.04 67 1021.3
20191115020408 32 253 0.0 5.0 0.00 0.20 0.04 67 1021.4
20191115015851 32 252 1.0 7.0 0.00 0.20 0.04 67 1021.5
20191115015343 32 253 0.0 7.0 0.00 0.20 0.04 67 1021.5
20191115014821 32 253 0.0 5.0 0.00 0.20 0.04 67 1021.5
20191115014413 32 253 0.0 3.0 0.00 0.20 0.04 67 1021.5
20191115013837 32 252 0.0 3.0 0.00 0.20 0.04 67 1021.5
20191115013342 32 252 0.0 4.0 0.00 0.20 0.04 67 1021.5
20191115012913 32 252 0.0 5.0 0.00 0.20 0.04 66 1021.6
20191115012341 32 250 1.0 5.0 0.00 0.20 0.04 66 1021.5
20191115011832 32 256 0.0 3.0 0.00 0.20 0.04 67 1021.5
20191115011357 32 256 0.0 4.0 0.00 0.20 0.04 67 1021.6
20191115010848 32 257 0.0 4.0 0.00 0.20 0.04 67 1021.6
20191115010332 32 256 0.0 2.0 0.00 0.20 0.04 67 1021.5
20191115005903 32 256 0.0 2.0 0.00 0.20 0.04 67 1021.6
20191115005345 32 257 0.0 4.0 0.00 0.20 0.04 67 1021.6
20191115004837 32 253 0.0 4.0 0.00 0.20 0.04 67 1021.6
20191115004401 32 253 0.0 5.0 0.00 0.20 0.04 66 1021.7
20191115003837 32 253 0.0 5.0 0.00 0.20 0.04 66 1021.6
20191115003402 32 248 0.0 3.0 0.00 0.20 0.04 66 1021.6
20191115002854 33 248 0.0 3.0 0.00 0.20 0.04 66 1021.6
20191115002337 32 249 0.0 3.0 0.00 0.20 0.04 66 1021.6
20191115001909 33 249 0.0 2.0 0.00 0.20 0.04 66 1021.7
20191115001333 33 249 0.0 2.0 0.00 0.20 0.04 66 1021.6
20191115000858 33 249 0.0 4.0 0.00 0.20 0.04 66 1021.7
20191115000322 33 250 0.0 4.0 0.00 0.20 0.04 66 1021.7
20191114235914 33 244 0.0 4.0 0.00 0.20 0.04 65 1021.7
20191114235348 33 244 1.0 4.0 0.00 0.20 0.04 65 1021.7
20191114234910 33 244 0.0 3.0 0.00 0.20 0.04 65 1021.7
20191114234335 33 244 0.0 3.0 0.00 0.20 0.04 65 1021.6
20191114233826 33 244 1.0 2.0 0.00 0.20 0.04 65 1021.6
20191114233352 33 244 0.0 3.0 0.00 0.20 0.04 65 1021.6
20191114232843 33 244 0.0 3.0 0.00 0.20 0.04 65 1021.7
20191114232328 33 246 0.0 3.0 0.00 0.20 0.04 64 1021.6
20191114231901 33 240 0.0 7.0 0.00 0.20 0.04 64 1021.6
20191114231345 33 241 1.0 6.0 0.00 0.20 0.04 65 1021.6
20191114230822 33 210 0.0 4.0 0.00 0.20 0.04 65 1021.6
20191114230347 33 203 0.0 1.0 0.00 0.20 0.04 65 1021.5
20191114225819 33 203 0.0 0.0 0.00 0.20 0.04 65 1021.4
20191114225344 33 203 0.0 2.0 0.00 0.20 0.04 64 1021.4
20191114224835 33 203 0.0 2.0 0.00 0.20 0.04 63 1021.4
20191114224319 33 203 0.0 2.0 0.00 0.20 0.04 63 1021.3
20191114223851 33 203 0.0 2.0 0.00 0.20 0.04 63 1021.2
20191114223335 33 202 0.0 4.0 0.00 0.20 0.04 63 1021.2
20191114222908 33 203 1.0 4.0 0.00 0.20 0.04 63 1021.1
20191114222337 33 157 0.0 4.0 0.00 0.20 0.04 62 1021.1
20191114221902 33 155 1.0 5.0 0.00 0.20 0.04 62 1021.1
20191114221425 33 250 1.0 7.0 0.00 0.20 0.04 62 1021.1
20191114220838 33 253 0.0 2.0 0.00 0.20 0.04 62 1021.1
20191114220326 33 253 0.0 3.0 0.00 0.20 0.04 62 1021.0
20191114215849 33 253 0.0 3.0 0.00 0.20 0.04 62 1021.0
20191114215341 33 249 0.0 5.0 0.00 0.20 0.04 62 1021.0
20191114214846 33 245 0.0 5.0 0.00 0.20 0.04 62 1021.0
20191114214327 33 244 1.0 3.0 0.00 0.20 0.04 61 1021.0
20191114213818 33 240 0.0 4.0 0.00 0.20 0.04 62 1021.0
20191114213343 33 246 0.0 7.0 0.00 0.20 0.04 61 1021.0
20191114212819 33 227 0.0 6.0 0.00 0.20 0.04 62 1021.0
20191114212345 33 203 1.0 4.0 0.00 0.20 0.04 61 1021.0
20191114211428 34 249 0.0 5.0 0.00 0.20 0.04 61 1021.0
20191114210900 34 249 1.0 8.0 0.00 0.20 0.04 61 1020.9
20191114210355 34 254 0.0 2.0 0.00 0.20 0.04 61 1020.8
20191114205907 34 249 0.0 2.0 0.04 0.20 0.04 61 1020.8
20191114205333 34 250 0.0 2.0 0.04 0.20 0.04 61 1020.8
20191114204824 34 250 0.0 2.0 0.04 0.20 0.04 61 1020.7
20191114204350 34 249 0.0 10.0 0.04 0.20 0.04 61 1020.7
20191114203840 34 250 4.0 10.0 0.04 0.20 0.04 59 1020.7
20191114203346 34 250 1.0 4.0 0.08 0.20 0.04 61 1020.7
20191114202912 34 250 0.0 3.0 0.08 0.20 0.04 61 1020.8
20191114202348 34 250 0.0 7.0 0.08 0.20 0.04 60 1020.7
20191114201912 34 250 0.0 7.0 0.08 0.20 0.04 60 1020.6
20191114201337 34 248 1.0 7.0 0.12 0.20 0.04 61 1020.5
20191114200908 34 244 1.0 7.0 0.12 0.20 0.04 61 1020.5
20191114200352 34 255 0.0 4.0 0.16 0.20 0.04 60 1020.5
20191114195842 34 255 0.0 4.0 0.12 0.16 0.03 60 1020.5
20191114195406 34 254 0.0 4.0 0.12 0.16 0.03 60 1020.4
20191114194831 34 246 1.0 11.0 0.16 0.16 0.03 59 1020.3
20191114194402 34 248 0.0 11.0 0.16 0.16 0.03 60 1020.3
20191114193830 35 271 1.0 5.0 0.12 0.12 0.02 59 1020.3
20191114193321 35 245 1.0 8.0 0.12 0.12 0.02 59 1020.2
20191114192904 35 243 2.0 8.0 0.12 0.12 0.02 59 1020.2
20191114192354 35 259 1.0 4.0 0.12 0.12 0.02 60 1020.3
20191114191843 35 248 0.0 4.0 0.08 0.08 0.02 60 1020.3
20191114191408 35 248 1.0 4.0 0.08 0.08 0.02 59 1020.2
20191114190900 35 248 1.0 4.0 0.08 0.08 0.02 59 1020.3
20191114190325 35 250 2.0 5.0 0.04 0.04 0.01 59 1020.3
20191114185851 35 244 0.0 7.0 0.04 0.04 0.01 60 1020.2
20191114184823 34 227 1.0 5.0 0.00 0.00 0.00 59 1020.3
20191114184414 34 223 1.0 5.0 0.00 0.00 0.00 60 1020.3
20191114183841 34 252 0.0 5.0 0.00 0.00 0.00 60 1020.3
20191114183357 34 252 1.0 5.0 0.00 0.00 0.00 60 1020.3
20191114182915 34 246 1.0 5.0 0.00 0.00 0.00 60 1020.3
20191114182339 34 257 1.0 7.0 0.00 0.00 0.00 61 1020.3
20191114181820 34 254 1.0 7.0 0.00 0.00 0.00 62 1020.4
20191114181352 34 257 0.0 4.0 0.00 0.00 0.00 61 1020.4
20191114180818 34 254 1.0 7.0 0.00 0.00 0.00 61 1020.4
20191114180343 33 254 0.0 7.0 0.00 0.00 0.00 61 1020.4
20191114175835 34 278 0.0 6.0 0.00 0.00 0.00 62 1020.4
20191114175341 33 277 1.0 6.0 0.00 0.00 0.00 62 1020.5
20191114174818 34 217 0.0 4.0 0.00 0.00 0.00 62 1020.4
20191114174344 34 187 0.0 3.0 0.00 0.00 0.00 62 1020.4
20191114173910 33 261 1.0 3.0 0.00 0.00 0.00 63 1020.4
20191114173342 33 260 0.0 2.0 0.00 0.00 0.00 63 1020.5
20191114172848 33 260 0.0 2.0 0.00 0.00 0.00 64 1020.5
20191114172333 33 260 0.0 4.0 0.00 0.00 0.00 63 1020.5
20191114171824 33 280 0.0 7.0 0.00 0.00 0.00 63 1020.6
20191114171415 33 302 2.0 7.0 0.00 0.00 0.00 63 1020.6
20191114170859 33 234 3.0 8.0 0.00 0.00 0.00 63 1020.7
20191114170334 33 249 0.0 8.0 0.00 0.00 0.00 64 1020.6
20191114165838 33 250 2.0 8.0 0.00 0.00 0.00 64 1020.8
20191114165322 33 243 1.0 4.0 0.00 0.00 0.00 65 1020.8
20191114164855 33 250 1.0 4.0 0.00 0.00 0.00 66 1020.8
20191114164338 32 238 0.0 3.0 0.00 0.00 0.00 66 1020.8
20191114163829 32 238 1.0 3.0 0.00 0.00 0.00 67 1020.8
20191114163320 32 233 0.0 2.0 0.00 0.00 0.00 68 1020.8
20191114162846 32 233 1.0 3.0 0.00 0.00 0.00 68 1020.9
20191114162335 31 233 1.0 4.0 0.00 0.00 0.00 68 1020.8
20191114161857 31 216 0.0 4.0 0.00 0.00 0.00 68 1020.8
20191114161326 31 256 0.0 3.0 0.00 0.00 0.00 69 1020.9
20191114160855 31 256 1.0 7.0 0.00 0.00 0.00 69 1020.8
20191114160321 31 244 1.0 7.0 0.00 0.00 0.00 69 1020.8
20191114155913 31 241 1.0 5.0 0.00 0.00 0.00 69 1020.9
20191114155338 31 223 1.0 3.0 0.00 0.00 0.00 70 1020.9
20191114154902 30 221 0.0 3.0 0.00 0.00 0.00 70 1020.9
20191114154334 30 221 1.0 5.0 0.00 0.00 0.00 70 1020.8
20191114153818 30 225 0.0 5.0 0.00 0.00 0.00 71 1020.8
20191114153350 30 198 0.0 3.0 0.00 0.00 0.00 71 1020.8
20191114152819 30 198 0.0 5.0 0.00 0.00 0.00 71 1020.8
20191114152342 30 165 1.0 5.0 0.00 0.00 0.00 72 1020.8
20191114151914 30 161 0.0 3.0 0.00 0.00 0.00 72 1020.8
20191114151338 30 261 0.0 3.0 0.00 0.00 0.00 72 1020.8
20191114150903 30 261 0.0 3.0 0.00 0.00 0.00 72 1020.7
20191114150355 29 277 0.0 2.0 0.00 0.00 0.00 72 1020.8
20191114145820 29 278 0.0 1.0 0.00 0.00 0.00 72 1020.7
20191114145413 29 278 0.0 2.0 0.00 0.00 0.00 72 1020.7
20191114144818 29 277 0.0 2.0 0.00 0.00 0.00 72 1020.8
20191114144344 29 279 0.0 3.0 0.00 0.00 0.00 72 1020.8
20191114143820 29 268 0.0 2.0 0.00 0.00 0.00 73 1020.9
20191114143342 29 269 0.0 1.0 0.00 0.00 0.00 73 1020.8
20191114142904 29 269 0.0 1.0 0.00 0.00 0.00 73 1020.9
20191114142337 29 269 0.0 1.0 0.00 0.00 0.00 73 1020.7
20191114141821 29 268 0.0 1.0 0.00 0.00 0.00 73 1020.7
20191114141353 29 269 0.0 2.0 0.00 0.00 0.00 72 1020.7
20191114140836 29 269 0.0 1.0 0.00 0.00 0.00 72 1020.7
20191114140409 29 269 0.0 2.0 0.00 0.00 0.00 72 1020.7
20191114135853 29 269 0.0 2.0 0.00 0.00 0.00 72 1020.7
20191114135330 29 268 0.0 3.0 0.00 0.00 0.00 72 1020.8
20191114134855 29 268 0.0 3.0 0.00 0.00 0.00 72 1020.8
20191114134344 29 269 0.0 3.0 0.00 0.00 0.00 72 1020.7
20191114133849 29 268 0.0 3.0 0.00 0.00 0.00 71 1020.6
20191114133333 29 269 0.0 3.0 0.00 0.00 0.00 71 1020.6
20191114132906 28 268 0.0 3.0 0.00 0.00 0.00 71 1020.6
20191114132331 28 269 0.0 3.0 0.00 0.00 0.00 71 1020.6
20191114131857 28 269 0.0 3.0 0.00 0.00 0.00 71 1020.5
20191114131329 28 268 0.0 3.0 0.00 0.00 0.00 71 1020.4
20191114130851 28 269 0.0 3.0 0.00 0.00 0.00 71 1020.4
20191114130318 28 268 0.0 2.0 0.00 0.00 0.00 71 1020.4
20191114125849 28 269 0.0 4.0 0.00 0.00 0.00 71 1020.3